Back to catalog

FENGYUN 1C DEB

AlivePO
NORAD 30015·DEBRIS·🇨🇳 China

Launched May 10, 1999 from Taiyuan Satellite Launch Center

Loading…

Next Passes (next 24 hours)

TLE

FreshSource: Space-Track

Epoch: Sep 14, 2026, 13:08 UTC

1 30015U 99025MQ  26257.54741120  .00000838  00000-0  33074-3 0  9999
2 30015  99.2210 282.4071 0038295  50.3525 102.4065 14.31572067 21125

Track FENGYUN 1C DEB in real time with AllMySat

Download on the App Store